Weather History for Goshen, IN

Change the Weather History Date:

Thursday, May 2, 2013

  Actual Average Record
Temperature  
Mean Temperature 70 °F -  
Max Temperature 81 °F 65 °F 87 °F (1959)
Min Temperature 59 °F 43 °F 30 °F (1966)
Cooling Degree Days 6    
Growing Degree Days 20 (Base 50)    
Moisture  
Dew Point 53 °F    
Average Humidity 58    
Maximum Humidity 78    
Minimum Humidity 39    
Precipitation  
Precipitation 0.00 in - - ()
Sea Level Pressure  
Sea Level Pressure 30.13 in    
Wind  
Wind Speed 8 mph (SE)    
Max Wind Speed 14 mph    
Max Gust Speed 20 mph    
Visibility 10 miles    
Events      
Averages and records for this station are not official NWS values.
T = Trace of Precipitation, MM = Missing Value Source: NWS Daily Summary

Daily Weather History Graph

Daily Weather History Graph

Search for Another Location

Airport:

Trip Planner

Search our weather history database for the weather conditions in past years. The results will help you decide how hot, cold, wet, or windy it might be!

Date:

Astronomy

May. 02, 2013 Rise Set
Actual Time 6:38 AM EDT 8:42 PM EDT
Civil Twilight 6:08 AM EDT 9:12 PM EDT
Nautical Twilight 5:31 AM EDT 9:49 PM EDT
Astronomical Twilight 4:50 AM EDT 10:30 PM EDT
Moon 2:30 AM EDT (5/2) 1:25 PM EDT (5/2)
Length of Visible Light 15h 04m
Length of Day
14h 03m
Waning Gibbous, 48% of the Moon is Illuminated
May 2
Waning Gibbous
May 9
New
May 18
First Quarter
May 25
Full
May 31
Last Quarter

Hourly Weather History & Observations

Time (EDT) Temp. Heat Index Dew Point Humidity Pressure Visibility Wind Dir Wind Speed Gust Speed Precip Events Conditions
12:53 AM 66.9 °F - 54.0 °F 63% 30.16 in 10.0 mi ESE 6.9 mph - N/A   Clear
1:53 AM 66.0 °F - 54.0 °F 65% 30.16 in 10.0 mi SE 6.9 mph - N/A   Clear
2:53 AM 64.0 °F - 53.1 °F 67% 30.15 in 10.0 mi SE 6.9 mph - N/A   Clear
3:53 AM 61.0 °F - 53.1 °F 75% 30.15 in 10.0 mi East 6.9 mph - N/A   Clear
4:53 AM 61.0 °F - 54.0 °F 78% 30.15 in 10.0 mi ESE 6.9 mph - N/A   Clear
5:53 AM 61.0 °F - 54.0 °F 78% 30.14 in 10.0 mi ESE 9.2 mph - N/A   Unknown
6:53 AM 62.1 °F - 54.0 °F 75% 30.15 in 10.0 mi SE 8.1 mph - N/A   Clear
7:53 AM 64.0 °F - 54.0 °F 70% 30.17 in 10.0 mi SE 8.1 mph - N/A   Clear
8:53 AM 66.9 °F - 55.0 °F 66% 30.18 in 10.0 mi SSE 9.2 mph - N/A   Clear
9:53 AM 71.1 °F - 54.0 °F 55% 30.19 in 10.0 mi South 12.7 mph - N/A   Clear
10:53 AM 72.0 °F - 54.0 °F 53% 30.18 in 10.0 mi South 8.1 mph - N/A   Clear
11:53 AM 75.0 °F - 55.9 °F 51% 30.17 in 10.0 mi SSE 8.1 mph - N/A   Clear
12:53 PM 78.1 °F - 55.0 °F 45% 30.16 in 10.0 mi SSE 6.9 mph - N/A   Scattered Clouds
1:53 PM 80.1 °F 80.0 °F 54.0 °F 40% 30.14 in 10.0 mi ESE 9.2 mph - N/A   Mostly Cloudy
2:53 PM 78.1 °F - 52.0 °F 40% 30.13 in 10.0 mi SE 6.9 mph - N/A   Scattered Clouds
3:53 PM 79.0 °F - 54.0 °F 42% 30.11 in 10.0 mi SE 11.5 mph 19.6 mph N/A   Mostly Cloudy
4:53 PM 78.1 °F - 53.1 °F 42% 30.09 in 10.0 mi SE 9.2 mph - N/A   Scattered Clouds
5:53 PM 77.0 °F - 50.0 °F 39% 30.08 in 10.0 mi SE 12.7 mph - N/A   Partly Cloudy
6:53 PM 75.9 °F - 53.1 °F 45% 30.07 in 10.0 mi SSE 13.8 mph 19.6 mph N/A   Clear
7:53 PM 73.0 °F - 52.0 °F 48% 30.07 in 10.0 mi SSE 10.4 mph - N/A   Clear
8:53 PM 69.1 °F - 51.1 °F 53% 30.09 in 10.0 mi SSE 8.1 mph - N/A   Clear
9:53 PM 66.0 °F - 51.1 °F 59% 30.09 in 10.0 mi ESE 4.6 mph - N/A   Clear
10:53 PM 63.0 °F - 51.1 °F 65% 30.09 in 10.0 mi ESE 5.8 mph - N/A   Clear
11:53 PM 59.0 °F - 51.1 °F 75% 30.09 in 10.0 mi Calm Calm - N/A   Clear